Zurück zum Katalog

QIANFAN-61

AktivKommunikationPO
NORAD 62791·PAYLOAD·🇨🇳 China

Gestartet Jan 23, 2025 von Taiyuan Satellite Launch Center

Loading…

Nächste Überflüge (nächste 24 Stunden)

TLE

AktuellSource: Space-Track

Epoche: Sep 14, 2026, 13:10 UTC

1 62791U 25016G   26257.54917777  .00000028  00000-0  25529-4 0  9995
2 62791  88.9714  74.7350 0012881 265.8371  94.1308 13.51027217 84480

Verfolge QIANFAN-61 in Echtzeit mit AllMySat

Download on the App Store